Location: Ar Ranvel
(48.3000°N, 4.8833°W)
Time: 16:30:34
(UTC+00:00)

KORONAS-FOTON - Pass Details

Date: 16 June 2021
Orbit: 505 x 530 km, 82.4° (Epoch: 30 July)

Event Time Altitude Azimuth Distance (km) Brightness Sun altitude
Exits shadow 21:35:54 - 179° (S) 1,916 6.2 -9.4°
Reaches altitude 10° 21:36:21 10° 178° (S) 1,734 6.0 -9.5°
Maximum altitude 21:40:06 65° 97° (E) 569 3.8 -9.8°
Drops below altitude 10° 21:43:53 10° 15° (NNE) 1,738 7.0 -10.2°
Sets 21:46:01 0° 13° (NNE) 2,626 8.1 -10.4°
